sat.trackr.live / text

‹ back to catalog

UNKNOWN

NORAD 87014

UNKNOWN UNKNOWN UNKNOWN

§ Identity

Operator
Country
Launch date
Launch site
Launch vehicle
Mass (kg)
RCS (m²)

External: N2YO · Heavens-Above

§ Orbital elements

Epoch: 2026-05-23T21:00:42.077664Z

Period
106.46 min
Inclination
100.4736°
Eccentricity
0.0043453
Mean motion
13.52674673 rev/d
Perigee alt
1,030.1 km
Apogee alt
1,094.8 km
Semi-major
7,440.6 km
B*
2.6927e-3
RAAN
122.1549°
Arg perigee
202.9877°
Mean anomaly
188.7863°
Rev number
61,283

§ Raw data

UNKNOWN1 87014U          26143.87548701  .00001748  00000+0  26927-2 0  99932 87014 100.4736 122.1549 0043453 202.9877 188.7863 13.52674673612836

JSON: /api/v1/satellites/87014 · /tle

For live sub-satellite position, see the globe view (requires WebGL).

§ Visibility from observer

Set your observer location to see the next 7 days of passes ≥ 10°. The values pass through the URL so the page stays shareable.

No JS? Fill the form by hand. The geolocation button needs JavaScript.